Location: Newark
(44.4156°N, 12.1972°E)
Time: 07:07:59
(UTC+00:00)

STARLINK-1144 - Pass Details

Date: 02 February 2020
Orbit: 548 x 551 km, 53.0° (Epoch: 22 February)

Event Time Altitude Azimuth Distance (km) Brightness Sun altitude
Rises 18:12:43 0° 293° (WNW) 2,722 8.3 -20.1°
Reaches altitude 10° 18:15:27 10° 275° (W) 1,824 7.4 -20.6°
Maximum altitude 18:18:24 19° 230° (SW) 1,341 6.2 -21.1°
Drops below altitude 10° 18:21:20 10° 184° (S) 1,816 6.3 -21.7°
Enters shadow 18:23:12 - 171° (S) 2,409 6.8 -22.0°
